ONEWEB-0063, 45448

Orbit data source: Space-Track

ONEWEB-0063, 45448 is a payload satellite owned by One Web (UK) in LEO that was launched on Sat, 21 Mar 2020 UTC via a SOYUZ-2-1B launch vehicle from the Tyuratam Missile And Space Complex (TTMTR). Payload-class satellites include a variety of spacecraft equipped with specific instruments for various scientific and technological missions. These include communications satellites like Starlink; space stations such as the ISS; scientific satellites like the Hubble; Earth observation satellites from companies like Planet Labs, Umbra, and HawkEye 360; GPS; miniature CubeSats for education and research; and military/defense satellites.

Loading next visibility...
Identifier
45448, 2020-020AA
Orbit
LEO
Country
Flag of UKUK
Related business
Manufacturer
One Web
Mission
Operational Commercial Communications
Bus & Motor
ARROW, Unknown motor
Mass
148 kg wet, ~140 kg dry
Launch date (UTC)
2020-03-21 (6 years ago)
Launch vehicle
SOYUZ-2-1B
Launch site
Tyuratam Missile And Space Complex (TTMTR)
Object type
Payload
Rocket body
Debris
Shape & HBR
Trap Box + 2 Pan, 6.7 m
Radar Cross Section
3.464 m², Large (>1 m²)

Expand to show TLE details & history
Last TLE update: 10 hours ago

TLE from 10 hours ago
0 ONEWEB-0063
1 45448U 20020AA  26036.94338910  .00000463  00000-0  12698-2 0  9994
2 45448  87.8824  47.1732 0002058  87.4516 272.6848 13.11415399285496
Epoch: 2026-02-05T22:38Z
TLE epoch observation values (Epoch: 2026-02-05T22:38:28.818Z)
Latitude
0.00004°
Longitude
-68.53524°
Altitude
1,220.505 km
Speed
7.244 km/s
True Right ascension
03h 08m 41s
True Declination
0° 00' 00"
Sunlit
Object was in daylight at epoch
Visualization orbit readout
Latitude
Unknown
Longitude
Unknown
Altitude
Unknown
Speed
Unknown
Apparent Right ascension
Unknown
Apparent Declination
Unknown
Sunlit
N/A
Visualization observer readout
Local Sidereal Time
10:58:18
Azimuth
Unknown
Elevation
Unknown
Doppler factor
Unknown
Orbital elements
Apogee altitude
1,216.37 km
Perigee altitude
1,213.244 km
Semi-major axis
7,592.944 km
Eccentricity
0.00021
Inclination
87.8824°
RAAN
47.1732°
Arg. of periapsis
87.4516°
True anomaly
272.66124°
Mean anomaly
272.6848°
Eccentric anomaly
272.67302°
Mean motion
3.28041 °/min
Orbital period
109.74 mins
BSTAR
0.0012698
Loading maneuver chart data...
Computing Atmospheric mass density...
Loading historical data...
Loading historical data...
Loading historical data...
Loading historical data...
Loading historical data...
Loading historical data...
Loading historical data...

Documentation

Showing up to 5 results
|